Content
SEND FEEDBACK

Daily
Averages
Monthly
Summary
Mexico

SAN MARTINIANO, QUINTANA ROO


Home > North America > Mexico > Quintana Roo
Elevation: 15 meters     Latitude: 20 47N     Longitude: 087 16W

WEATHER
 
SELECT A DAY
Number of Records: 196,556;   Date Range: 2/21/06 - 8/30/14
 
SHARE

PRINT THIS DATA

[ ← Previous Day ]
WEATHER ALMANAC - 22 OCTOBER, 2013
[ Next Day → ]
[ °F ]   °C
Weather ElementAverageHighLow
Temperature25.8 °C32 °C (1:35 pm)22 °C (3:55 am)
Dewpoint-2.6 °C23 °C (8:35 pm) (7:00 pm)
Humidity61.1 %94 % (8:35 pm)49 % (1:35 pm)
Barometer1013.2 hPa1015.2 hPa (12:35 am)1011.2 hPa (5:35 pm)
Wind Speed7.1 km/h31.5 km/h (4:15 pm)
Wind Gust42.6 km/h (4:35 pm)
Weather ElementAverage
Visibility10.9 km
Wind DirectionESE (116.2 °)

Weather ElementTotal
Precipitation8.13 mm
Cooling Degree Days8.7 (Base 18.3)
Growing Degree Days17 (Base 10)
Averaged from 69 records on 22 October, 2013
WEATHER CONDITIONS BREAKOUT
WIND DIRECTION BREAKOUT
WEATHER BY HOUR - 22 OCTOBER, 2013
[ °F ]   °C
Local TimeTemperatureDewpointHumidityBarometerVisibilityWind DirectionWind SpeedGust SpeedPrecipitationEventsConditions
12:35 AM24 °C-17.8 °C1015.2 hPa16.1 kmCalmClear
12:55 AM23 °C-17.8 °C1015.2 hPa16.1 kmCalmClear
1:15 AM23 °C-17.8 °C1014.9 hPa16.1 kmCalmClear
1:35 AM24 °C-17.8 °C1014.9 hPa16.1 kmCalmClear
1:55 AM23 °C-17.8 °C1014.9 hPa11.3 kmCalmClear
2:15 AM23 °C-17.8 °C1014.6 hPa8 kmCalmHaze
2:35 AM23 °C-17.8 °C1014.6 hPa11.3 kmCalmClear
2:55 AM23 °C-17.8 °C1014.2 hPa11.3 kmCalmClear
3:15 AM23 °C-17.8 °C1014.2 hPa11.3 kmCalmClear
3:35 AM23 °C-17.8 °C1013.9 hPa8 kmCalmHaze
3:55 AM22 °C-17.8 °C1013.9 hPa4 kmCalmClear
4:15 AM23 °C-17.8 °C1013.5 hPa8 kmCalmHaze
4:35 AM23 °C-17.8 °C1013.5 hPa8 kmCalmHaze
4:55 AM23 °C-17.8 °C1013.9 hPa0.8 kmCalmFogFog
5:15 AM22 °C-17.8 °C1013.9 hPa0.3 kmCalmFogFog
5:35 AM22 °C-17.8 °C1013.9 hPa0.8 kmCalmFogFog
5:55 AM22 °C-17.8 °C1013.9 hPa0.3 kmCalmFogFog
6:15 AM22 °C-17.8 °C1014.2 hPa0.3 kmCalmFogFog
6:35 AM22 °C-17.8 °C1014.2 hPa0.3 kmCalmFogFog
6:55 AM22 °C-17.8 °C1014.6 hPa0.8 kmCalmFogFog
7:15 AM23 °C-17.8 °C1014.6 hPa0.3 kmCalmFogFog
7:35 AM23 °C-17.8 °C1014.6 hPa0.3 kmCalmFogFog
7:55 AM23 °C-17.8 °C1014.6 hPa0.3 kmCalmFogFog
8:15 AM23 °C-17.8 °C1014.6 hPa0.3 kmCalmFogFog
8:35 AM23 °C-17.8 °C1014.6 hPa0.3 kmCalmFogFog
8:55 AM23 °C-17.8 °C1014.9 hPa0.3 kmCalmFogFog
9:15 AM24 °C-17.8 °C1014.6 hPa0.3 kmCalmFogFog
9:35 AM24 °C-17.8 °C1014.6 hPa0.3 kmCalmFogFog
9:55 AM24 °C-17.8 °C1014.6 hPa0.8 kmCalmFogFog
10:15 AM25 °C-17.8 °C1014.6 hPa4.8 kmCalmOvercast
10:35 AM25 °C-17.8 °C1014.6 hPa8 kmSE (140°)5.6 km/hHaze
10:55 AM26 °C-17.8 °C1014.6 hPa11.3 kmSSW (210°)7.4 km/hClear
11:15 AM26 °C-17.8 °C1014.2 hPa16.1 kmSouth (190°)11.1 km/hClear
11:35 AM27 °C-17.8 °C1013.9 hPa16.1 kmSSW (200°)7.4 km/hClear
11:55 AM29 °C22 °C66 %1013.9 hPa16.1 kmSSW (200°)11.1 km/hClear
12:15 PM30 °C21 °C58 %1013.9 hPa16.1 kmSSW (210°)14.8 km/hClear
12:35 PM31 °C21 °C55 %1013.9 hPa16.1 kmSSW (200°)11.1 km/hMostly Cloudy
12:55 PM31 °C20 °C52 %1013.5 hPa16.1 kmSSW (210°)13 km/hOvercast
1:15 PM31 °C20 °C52 %1013.2 hPa16.1 kmSW (230°)14.8 km/hMostly Cloudy
1:35 PM32 °C20 °C49 %1012.9 hPa16.1 kmWSW (240°)16.7 km/hScattered Clouds
1:55 PM32 °C20 °C49 %1012.5 hPa16.1 kmSW (220°)20.4 km/h25.9 km/hScattered Clouds
2:15 PM32 °C21 °C52 %1012.2 hPa16.1 kmSW (230°)13 km/hMostly Cloudy
2:35 PM31 °C21 °C55 %1011.9 hPa16.1 kmSW (230°)18.5 km/h27.8 km/hScattered Clouds
2:55 PM32 °C21 °C52 %1011.9 hPa16.1 kmWest (260°)20.4 km/hMostly Cloudy
3:15 PM31 °C21 °C55 %1011.5 hPa16.1 kmWSW (240°)20.4 km/h27.8 km/hScattered Clouds
3:35 PM32 °C21 °C52 %1011.9 hPa16.1 kmWSW (250°)25.9 km/h33.3 km/hScattered Clouds
3:55 PM32 °C21 °C52 %1011.5 hPa16.1 kmWest (260°)25.9 km/h35.2 km/hScattered Clouds
4:15 PM32 °C20 °C49 %1011.5 hPa16.1 kmWSW (250°)31.5 km/h40.7 km/hScattered Clouds
4:35 PM31 °C20 °C52 %1011.5 hPa16.1 kmWest (260°)29.6 km/h42.6 km/hClear
4:55 PM31 °C21 °C55 %1011.5 hPa16.1 kmWSW (240°)25.9 km/h37 km/hScattered Clouds
5:15 PM30 °C21 °C58 %1011.5 hPa16.1 kmWSW (240°)20.4 km/h27.8 km/hScattered Clouds
5:35 PM30 °C21 °C58 %1011.2 hPa16.1 kmWSW (250°)20.4 km/hScattered Clouds
5:55 PM29 °C21 °C62 %1011.2 hPa16.1 kmWest (260°)18.5 km/h29.6 km/hScattered Clouds
6:15 PM28 °C20 °C62 %1011.2 hPa16.1 kmWest (280°)14.8 km/hScattered Clouds
6:35 PM27 °C21 °C70 %1011.2 hPa16.1 kmWNW (290°)9.3 km/hScattered Clouds
6:55 PM26 °C22 °C78 %1011.5 hPa16.1 kmNW (310°)9.3 km/hMostly Cloudy
7:15 PM26 °C22 °C78 %1011.5 hPa16.1 kmCalmMostly Cloudy
7:35 PM26 °C22 °C78 %1011.9 hPa16.1 kmCalmScattered Clouds
7:55 PM26 °C22 °C78 %1012.2 hPa16.1 kmNW (310°)9.3 km/hScattered Clouds
8:15 PM25 °C21 °C78 %1012.9 hPa16.1 kmWNW (290°)9.3 km/hRainLight Rain
8:35 PM24 °C23 °C94 %1012.9 hPa11.3 kmWest (280°)5.6 km/h1.02 mmRainRain
8:55 PM24 °C-17.8 °C1013.2 hPa16.1 kmWest (260°)7.4 km/h1.27 mmRainLight Rain
9:15 PM24 °C-17.8 °C1013.2 hPa11.3 kmWest (280°)11.1 km/h0.51 mmRainRain
9:35 PM24 °C-17.8 °C1013.2 hPa11.3 kmWest (280°)7.4 km/h2.29 mmRainRain
9:55 PM24 °C-17.8 °C1012.9 hPa11.3 kmCalm3.05 mmRainLight Rain
10:35 PM24 °C-17.8 °C1011.5 hPa16.1 kmCalmClear
11:15 PM24 °C-17.8 °C1011.5 hPa16.1 kmCalmScattered Clouds
11:35 PM24 °C-17.8 °C1011.5 hPa16.1 kmSW (220°)5.6 km/hClear
11:55 PM23 °C-17.8 °C1011.5 hPa16.1 kmCalmClear
Hourly data recorded from KPCM, located 0 kilometers away from San Martiniano, Quintana Roo







STORIES FROM OUR PARTNERS